{"data":{"norad_id":62236,"intl_designator":"2024-231U","name":"STARLINK-32641","alt_names":[],"object_type":"PAYLOAD","status":"ACTIVE","operator":null,"country":"US","launch_date":"2024-12-05","launch_site_code":"AFWTR","launch_vehicle":null,"mission":null,"orbit_class":"UNKNOWN","rcs_meters":null,"size_class":null,"mass_kg":null,"dimensions":null,"purposes":["comms"],"wikipedia_slug":null,"has_3d_model":false,"image_url":null,"decayed_at":null,"tle_current":{"epoch":"2026-09-21T16:11:18.502080Z","epoch_age_seconds":76747,"freshness":"FRESH","line1":"1 62236U 24231U   26264.67451970  .00015340  00000+0  46419-3 0  9999","line2":"2 62236  53.1598  15.8717 0001036  78.7094 281.4025 15.34401149101956","mean_motion":15.34401149,"eccentricity":0.0001036,"inclination_deg":53.1598,"raan_deg":15.8717,"arg_perigee_deg":78.7094,"mean_anomaly_deg":281.4025,"bstar":0.00046419,"rev_number":10195,"period_min":93.847687805661,"perigee_km":461.99111444401,"apogee_km":463.40853583418,"semimajor_km":6840.8368251391,"source":"CELESTRAK","updated_at":"2026-09-22T09:00:49.565109Z"}}}